• In Uzbekistan
  • List of Countries
  • For 7 days
  • Water Temperature
  • Satellite Maps
  • Weather Map
  • Weather Widgets
  • user-avatar
    Login

    Hourly Weather Raivka

    Today, 18 December, Monday

    Time Temperature Precipitation Wind Pressure Humidity
    00:00 +4°C° 0 mm 6 mps 758 mmHg 84%
    01:00 +4°C° 0.1 mm 6 mps 758 mmHg 84%
    02:00 +4°C° 0.1 mm 6 mps 758 mmHg 84%
    03:00 +4°C° 0 mm 6 mps 758 mmHg 86%
    04:00 +4°C° 0.3 mm 6 mps 758 mmHg 86%
    05:00 +4°C° 0.3 mm 7 mps 757 mmHg 87%
    06:00 +4°C° 0.3 mm 7 mps 757 mmHg 87%
    07:00 +4°C° 0.5 mm 7 mps 757 mmHg 87%
    08:00 +4°C° 0.5 mm 7 mps 757 mmHg 88%
    09:00 +4°C° 0 mm 8 mps 757 mmHg 88%
    10:00 +5°C° 0.4 mm 8 mps 757 mmHg 86%
    11:00 +5°C° 0.4 mm 8 mps 757 mmHg 85%
    12:00 +6°C° 0.4 mm 9 mps 757 mmHg 83%
    13:00 +6°C° 0.3 mm 9 mps 756 mmHg 82%
    14:00 +6°C° 0.3 mm 8 mps 756 mmHg 81%
    15:00 +7°C° 0.3 mm 8 mps 756 mmHg 80%
    16:00 +7°C° 0 mm 8 mps 756 mmHg 80%
    17:00 +7°C° 0 mm 8 mps 756 mmHg 80%
    18:00 +8°C° 0 mm 7 mps 756 mmHg 79%
    19:00 +6°C° 0 mm 7 mps 756 mmHg 81%
    20:00 +7°C° 0 mm 6 mps 756 mmHg 83%
    21:00 +7°C° 0 mm 5 mps 757 mmHg 84%
    22:00 +6°C° 0 mm 5 mps 757 mmHg 83%
    23:00 +6°C° 0 mm 4 mps 757 mmHg 83%

    Tomorrow, 19 December, Tuesday

    Time Temperature Precipitation Wind Pressure Humidity
    00:00 +5°C° 0 mm 4 mps 757 mmHg 82%
    01:00 +5°C° 0.1 mm 4 mps 758 mmHg 82%
    02:00 +4°C° 0.1 mm 4 mps 758 mmHg 82%
    03:00 +4°C° 0.1 mm 3 mps 758 mmHg 82%
    04:00 +4°C° 0 mm 3 mps 758 mmHg 83%
    05:00 +3°C° 0 mm 3 mps 759 mmHg 84%
    06:00 +3°C° 0 mm 3 mps 759 mmHg 84%
    07:00 +4°C° 0 mm 2 mps 759 mmHg 84%
    08:00 +4°C° 0 mm 2 mps 759 mmHg 84%
    09:00 +4°C° 0 mm 2 mps 760 mmHg 83%
    10:00 +4°C° 0 mm 2 mps 760 mmHg 80%
    11:00 +4°C° 0 mm 2 mps 760 mmHg 77%
    12:00 +4°C° 0 mm 2 mps 760 mmHg 74%
    13:00 +4°C° 0 mm 2 mps 761 mmHg 72%
    14:00 +4°C° 0 mm 2 mps 761 mmHg 70%
    15:00 +5°C° 0 mm 2 mps 761 mmHg 69%
    16:00 +4°C° 0 mm 2 mps 761 mmHg 71%
    17:00 +3°C° 0 mm 2 mps 761 mmHg 74%
    18:00 +3°C° 0 mm 1 mps 761 mmHg 77%
    19:00 +3°C° 0 mm 1 mps 762 mmHg 77%
    20:00 +2°C° 0 mm 2 mps 762 mmHg 77%
    21:00 +2°C° 0 mm 2 mps 762 mmHg 78%
    22:00 +2°C° 0 mm 2 mps 763 mmHg 77%
    23:00 +3°C° 0 mm 1 mps 763 mmHg 77%

    Day after tomorrow, 20 December, Wednesday

    Time Temperature Precipitation Wind Pressure Humidity
    00:00 +3°C° 0 mm 1 mps 763 mmHg 76%
    01:00 +3°C° 0.1 mm 1 mps 763 mmHg 78%
    02:00 +3°C° 0.1 mm 1 mps 764 mmHg 79%
    03:00 +3°C° 0.1 mm 1 mps 764 mmHg 80%
    04:00 +2°C° 0 mm 1 mps 764 mmHg 83%
    05:00 +2°C° 0 mm 1 mps 764 mmHg 85%
    06:00 +1°C° 0 mm 1 mps 764 mmHg 87%
    07:00 +1°C° 0 mm 1 mps 765 mmHg 87%
    08:00 +1°C° 0 mm 1 mps 765 mmHg 86%
    09:00 +1°C° 0 mm 1 mps 765 mmHg 86%
    10:00 +2°C° 0 mm 1 mps 766 mmHg 81%
    11:00 +3°C° 0 mm 1 mps 766 mmHg 75%
    12:00 +4°C° 0 mm 1 mps 766 mmHg 70%
    13:00 +4°C° 0 mm 1 mps 766 mmHg 68%
    14:00 +4°C° 0 mm 1 mps 766 mmHg 67%
    15:00 +3°C° 0 mm 0 mps 766 mmHg 65%
    16:00 +4°C° 0 mm 1 mps 766 mmHg 69%
    17:00 +3°C° 0 mm 1 mps 767 mmHg 72%
    18:00 +3°C° 0 mm 1 mps 767 mmHg 75%
    19:00 +3°C° 0 mm 1 mps 767 mmHg 77%
    20:00 +2°C° 0 mm 1 mps 767 mmHg 78%
    21:00 +2°C° 0 mm 1 mps 767 mmHg 80%
    22:00 +2°C° 0 mm 1 mps 768 mmHg 82%
    23:00 +2°C° 0 mm 1 mps 768 mmHg 83%

    21 December, Thursday

    Time Temperature Precipitation Wind Pressure Humidity
    00:00 +2°C° 0 mm 1 mps 768 mmHg 84%
    01:00 +2°C° 0 mm 1 mps 768 mmHg 85%
    02:00 +2°C° 0 mm 1 mps 768 mmHg 85%
    03:00 +2°C° 0 mm 1 mps 768 mmHg 86%
    04:00 +2°C° 0 mm 1 mps 768 mmHg 86%
    05:00 +1°C° 0 mm 1 mps 768 mmHg 87%
    06:00 +1°C° 0 mm 1 mps 768 mmHg 88%
    07:00 +1°C° 0 mm 1 mps 768 mmHg 88%
    08:00 +1°C° 0 mm 1 mps 768 mmHg 88%
    09:00 +1°C° 0 mm 1 mps 768 mmHg 87%
    10:00 +1°C° 0 mm 2 mps 768 mmHg 83%
    11:00 +2°C° 0 mm 2 mps 768 mmHg 78%
    12:00 +2°C° 0 mm 2 mps 768 mmHg 74%
    13:00 +2°C° 0 mm 2 mps 768 mmHg 73%
    14:00 +2°C° 0 mm 2 mps 767 mmHg 72%
    15:00 +2°C° 0 mm 2 mps 767 mmHg 71%
    16:00 +2°C° 0 mm 2 mps 767 mmHg 74%
    17:00 +1°C° 0 mm 2 mps 767 mmHg 77%
    18:00 -1°C° 0 mm 2 mps 767 mmHg 79%
    19:00 +1°C° 0 mm 1 mps 767 mmHg 78%
    20:00 +1°C° 0 mm 1 mps 767 mmHg 77%
    21:00 +1°C° 0 mm 1 mps 767 mmHg 76%
    22:00 +1°C° 0 mm 1 mps 766 mmHg 75%
    23:00 +1°C° 0 mm 1 mps 766 mmHg 74%

    22 December, Friday

    Time Temperature Precipitation Wind Pressure Humidity
    00:00 0°C° 0 mm 1 mps 766 mmHg 73%
    01:00 0°C° 0 mm 1 mps 765 mmHg 73%
    02:00 0°C° 0 mm 1 mps 765 mmHg 73%
    03:00 0°C° 0 mm 1 mps 765 mmHg 73%
    04:00 0°C° 0 mm 1 mps 764 mmHg 72%
    05:00 -1°C° 0 mm 1 mps 764 mmHg 72%
    06:00 -1°C° 0 mm 1 mps 763 mmHg 72%
    07:00 -1°C° 0 mm 1 mps 763 mmHg 71%
    08:00 -1°C° 0 mm 1 mps 763 mmHg 70%
    09:00 -1°C° 0 mm 1 mps 763 mmHg 69%
    10:00 0°C° 0 mm 1 mps 762 mmHg 66%
    11:00 0°C° 0 mm 1 mps 762 mmHg 62%
    12:00 -1°C° 0 mm 2 mps 762 mmHg 59%
    13:00 -1°C° 0 mm 2 mps 762 mmHg 58%
    14:00 -1°C° 0 mm 2 mps 761 mmHg 58%
    15:00 -1°C° 0 mm 2 mps 761 mmHg 57%
    16:00 -1°C° 0 mm 2 mps 761 mmHg 60%
    17:00 -2°C° 0 mm 2 mps 761 mmHg 64%
    18:00 0°C° 0 mm 1 mps 761 mmHg 67%
    19:00 -1°C° 0 mm 1 mps 760 mmHg 68%
    20:00 -3°C° 0 mm 2 mps 760 mmHg 68%
    21:00 -3°C° 0 mm 2 mps 760 mmHg 69%
    22:00 -3°C° 0 mm 2 mps 760 mmHg 68%
    23:00 -4°C° 0 mm 3 mps 760 mmHg 68%

    23 December, Saturday

    Time Temperature Precipitation Wind Pressure Humidity
    00:00 -2°C° 0 mm 3 mps 759 mmHg 67%
    01:00 -2°C° 0 mm 3 mps 759 mmHg 69%
    02:00 -3°C° 0 mm 4 mps 758 mmHg 71%
    03:00 -3°C° 0 mm 4 mps 758 mmHg 73%
    04:00 -3°C° 0.1 mm 4 mps 758 mmHg 76%
    05:00 -4°C° 0.1 mm 5 mps 757 mmHg 79%
    06:00 -2°C° 0.1 mm 5 mps 757 mmHg 82%
    07:00 -2°C° 0.1 mm 5 mps 757 mmHg 83%
    08:00 -2°C° 0.1 mm 5 mps 756 mmHg 83%
    09:00 -2°C° 0.1 mm 5 mps 756 mmHg 84%
    10:00 -1°C° 0 mm 5 mps 756 mmHg 80%
    11:00 0°C° 0 mm 5 mps 756 mmHg 77%
    12:00 -1°C° 0 mm 6 mps 756 mmHg 73%
    13:00 0°C° 0 mm 5 mps 755 mmHg 72%
    14:00 0°C° 0 mm 5 mps 755 mmHg 72%
    15:00 0°C° 0 mm 4 mps 755 mmHg 71%
    16:00 +1°C° 0 mm 3 mps 755 mmHg 75%
    17:00 0°C° 0 mm 3 mps 755 mmHg 79%
    18:00 -1°C° 0 mm 2 mps 755 mmHg 83%
    19:00 -1°C° 0 mm 2 mps 755 mmHg 84%
    20:00 -1°C° 0 mm 2 mps 755 mmHg 85%
    21:00 -1°C° 0 mm 2 mps 755 mmHg 86%
    22:00 -1°C° 0 mm 2 mps 755 mmHg 87%
    23:00 -1°C° 0 mm 2 mps 755 mmHg 89%
    Show more